MSR989 OMDB-HECA

Flight info

Callsign MSR989
Flight time 1h 11m
Altitude 35000
Route SENPA N571 ALPOB L768 VATIM L550 NOVPA N697 MENLI L677 CVO
Aircraft B77W/H-SDE1E2E3FGHIJ2J3J4J5M1RWXY/LB1D1

Departure

Time 2026-04-20 19:39
Airport Dubai International Airport (OMDB)

Arrival

Time 2026-04-20 20:50
Airport Cairo International Airport (HECA)
Time Latitude Longitude Altitude Speed Heading
2026-04-20 19:08 25.24285 55.37530 43 ft 0 kts 207°
2026-04-20 19:21 25.24295 55.37535 42 ft 2 kts 204°
2026-04-20 19:21 25.24305 55.37541 42 ft 2 kts 204°
2026-04-20 19:21 25.24320 55.37548 40 ft 2 kts 200°
2026-04-20 19:22 25.24336 55.37553 41 ft 2 kts 190°
2026-04-20 19:22 25.24352 55.37554 38 ft 2 kts 158°
2026-04-20 19:22 25.24365 55.37544 39 ft 1 kts 123°
2026-04-20 19:22 25.24367 55.37541 38 ft 0 kts 122°
2026-04-20 19:27 25.24360 55.37552 43 ft 9 kts 122°
2026-04-20 19:27 25.24342 55.37584 41 ft 0 kts 122°
2026-04-20 19:29 25.24337 55.37593 40 ft 8 kts 122°
2026-04-20 19:29 25.24295 55.37667 43 ft 22 kts 121°
2026-04-20 19:29 25.24190 55.37718 45 ft 23 kts 198°
2026-04-20 19:29 25.24027 55.37607 46 ft 21 kts 221°
2026-04-20 19:30 25.23980 55.37531 46 ft 14 kts 252°
2026-04-20 19:30 25.23977 55.37518 46 ft 0 kts 258°
2026-04-20 19:31 25.23977 55.37471 45 ft 15 kts 278°
2026-04-20 19:31 25.24051 55.37315 43 ft 31 kts 301°
2026-04-20 19:31 25.24122 55.37185 41 ft 4 kts 301°
2026-04-20 19:32 25.24138 55.37155 40 ft 5 kts 301°
2026-04-20 19:32 25.24154 55.37125 40 ft 5 kts 300°
2026-04-20 19:32 25.24170 55.37095 40 ft 5 kts 300°
2026-04-20 19:32 25.24186 55.37064 39 ft 5 kts 300°
2026-04-20 19:33 25.24203 55.37034 37 ft 5 kts 301°
2026-04-20 19:33 25.24234 55.36979 38 ft 17 kts 302°
2026-04-20 19:33 25.24290 55.36880 37 ft 23 kts 302°
2026-04-20 19:33 25.24429 55.36721 34 ft 23 kts 347°
2026-04-20 19:34 25.24531 55.36743 33 ft 15 kts 62°
2026-04-20 19:34 25.24599 55.36842 34 ft 7 kts 35°
2026-04-20 19:34 25.24649 55.36879 33 ft 9 kts 33°
2026-04-20 19:34 25.24678 55.36909 33 ft 9 kts 56°
2026-04-20 19:35 25.24665 55.36999 34 ft 11 kts 116°
2026-04-20 19:35 25.24609 55.37105 35 ft 22 kts 122°
2026-04-20 19:35 25.24510 55.37279 37 ft 31 kts 121°
2026-04-20 19:35 25.24405 55.37474 40 ft 28 kts 121°
2026-04-20 19:36 25.24315 55.37636 43 ft 21 kts 121°
2026-04-20 19:36 25.24274 55.37744 44 ft 10 kts 83°
2026-04-20 19:36 25.24317 55.37801 42 ft 10 kts 40°
2026-04-20 19:36 25.24325 55.37808 41 ft 0 kts 38°
2026-04-20 19:37 25.24328 55.37820 39 ft 3 kts 82°
2026-04-20 19:37 25.24383 55.37870 27 ft 10 kts 16°
2026-04-20 19:37 25.24385 55.37871 27 ft 0 kts 16°
2026-04-20 19:37 25.24408 55.37882 27 ft 13 kts 24°
2026-04-20 19:38 25.24547 55.37981 30 ft 31 kts 35°
2026-04-20 19:38 25.24742 55.38091 41 ft 25 kts 354°
2026-04-20 19:38 25.24868 55.37904 38 ft 52 kts 301°
2026-04-20 19:38 25.25222 55.37267 35 ft 142 kts 301°
2026-04-20 19:39 25.25866 55.36086 141 ft 210 kts 300°
2026-04-20 19:39 25.26614 55.34671 1006 ft 215 kts 300°
2026-04-20 19:39 25.27401 55.33240 1903 ft 222 kts 302°
2026-04-20 19:39 25.28233 55.31782 2263 ft 227 kts 303°
2026-04-20 19:40 25.29085 55.30279 2513 ft 233 kts 303°
2026-04-20 19:40 25.29694 55.28638 2718 ft 236 kts 278°
2026-04-20 19:40 25.29793 55.26818 2994 ft 239 kts 275°
2026-04-20 19:40 25.29923 55.24960 3426 ft 247 kts 276°
2026-04-20 19:41 25.30070 55.23044 3816 ft 261 kts 276°
2026-04-20 19:41 25.30229 55.21007 3832 ft 267 kts 276°
2026-04-20 19:41 25.30388 55.18977 4009 ft 264 kts 276°
2026-04-20 19:41 25.30422 55.16931 4573 ft 271 kts 268°
2026-04-20 19:42 25.30258 55.14834 5183 ft 276 kts 266°
2026-04-20 19:42 25.30060 55.12728 5931 ft 275 kts 266°
2026-04-20 19:42 25.29868 55.10623 6655 ft 275 kts 267°
2026-04-20 19:42 25.29686 55.08514 7339 ft 276 kts 267°
2026-04-20 19:43 25.29511 55.06394 8010 ft 278 kts 268°
2026-04-20 19:43 25.29342 55.04292 8678 ft 279 kts 268°
2026-04-20 19:43 25.29174 55.02157 9360 ft 280 kts 268°
2026-04-20 19:43 25.29007 55.00009 9998 ft 282 kts 268°
2026-04-20 19:44 25.28837 54.97806 10324 ft 297 kts 268°
2026-04-20 19:44 25.28656 54.95447 10478 ft 318 kts 267°
2026-04-20 19:44 25.28510 54.92932 10636 ft 338 kts 270°
2026-04-20 19:44 25.28446 54.90254 10801 ft 358 kts 270°
2026-04-20 19:45 25.28384 54.87464 11218 ft 369 kts 270°
2026-04-20 19:45 25.28308 54.84606 11748 ft 376 kts 269°
2026-04-20 19:45 25.28225 54.81704 12390 ft 379 kts 269°
2026-04-20 19:45 25.28138 54.78780 13057 ft 382 kts 269°
2026-04-20 19:46 25.28053 54.75869 13681 ft 386 kts 269°
2026-04-20 19:46 25.28256 54.72920 14071 ft 390 kts 283°
2026-04-20 19:46 25.29026 54.70034 14594 ft 393 kts 287°
2026-04-20 19:46 25.29838 54.67149 15292 ft 393 kts 286°
2026-04-20 19:47 25.30614 54.64251 15972 ft 394 kts 285°
2026-04-20 19:47 25.31365 54.61328 16610 ft 396 kts 284°
2026-04-20 19:47 25.32094 54.58431 17234 ft 398 kts 284°
2026-04-20 19:47 25.32845 54.55429 17855 ft 401 kts 284°
2026-04-20 19:48 25.33585 54.52492 18400 ft 404 kts 284°
2026-04-20 19:48 25.34382 54.49504 18917 ft 407 kts 285°
2026-04-20 19:48 25.35204 54.46504 19454 ft 409 kts 285°
2026-04-20 19:48 25.36031 54.43492 19977 ft 411 kts 285°
2026-04-20 19:49 25.36859 54.40462 20489 ft 413 kts 285°
2026-04-20 19:49 25.37689 54.37405 21006 ft 416 kts 285°
2026-04-20 19:49 25.38519 54.34337 21505 ft 418 kts 285°
2026-04-20 19:49 25.39354 54.31243 21999 ft 421 kts 285°
2026-04-20 19:50 25.40181 54.28176 22476 ft 423 kts 285°
2026-04-20 19:50 25.43022 54.16708 24047 ft 430 kts 284°
2026-04-20 19:50 25.46926 54.00787 25811 ft 443 kts 283°
2026-04-20 19:50 25.53428 53.73947 28491 ft 461 kts 284°
2026-04-20 19:51 25.59972 53.46217 30811 ft 466 kts 284°
2026-04-20 19:51 25.66420 53.18880 33263 ft 452 kts 285°
2026-04-20 19:51 25.70777 53.00959 33840 ft 458 kts 289°
2026-04-20 19:52 25.97899 52.42356 33778 ft 439 kts 295°
2026-04-20 19:52 26.08364 52.18844 33720 ft 421 kts 294°
2026-04-20 19:52 26.18756 51.95367 33877 ft 426 kts 294°
2026-04-20 19:52 26.29449 51.71369 33934 ft 441 kts 294°
2026-04-20 19:53 26.40057 51.46384 33912 ft 446 kts 286°
2026-04-20 19:53 26.56395 50.94369 33801 ft 435 kts 287°
2026-04-20 19:54 26.71580 50.43995 33935 ft 428 kts 284°
2026-04-20 19:54 26.86250 49.92143 33933 ft 444 kts 286°
2026-04-20 19:55 27.01551 49.40426 33874 ft 435 kts 290°
2026-04-20 19:55 27.25236 48.93223 33886 ft 433 kts 295°
2026-04-20 19:56 27.45117 48.53281 34028 ft 448 kts 295°
2026-04-20 19:56 27.73640 47.95240 33904 ft 448 kts 293°
2026-04-20 19:56 27.85376 47.70724 33803 ft 433 kts 287°
2026-04-20 19:57 27.92855 47.45508 34049 ft 434 kts 283°
2026-04-20 19:57 28.00930 47.19330 34097 ft 447 kts 283°
2026-04-20 19:57 28.09127 46.92428 33977 ft 454 kts 282°
2026-04-20 19:58 28.26694 46.39148 33864 ft 441 kts 282°
2026-04-20 19:58 28.44579 45.87769 34093 ft 440 kts 285°
2026-04-20 19:59 28.63339 45.36964 33989 ft 437 kts 285°
2026-04-20 19:59 28.81760 44.86273 33970 ft 429 kts 285°
2026-04-20 19:59 28.87226 44.60822 33966 ft 404 kts 270°
2026-04-20 20:00 28.89140 44.34968 34040 ft 412 kts 271°
2026-04-20 20:00 28.93169 43.82536 33867 ft 410 kts 271°
2026-04-20 20:00 28.95028 43.57381 33837 ft 397 kts 271°
2026-04-20 20:01 28.96813 43.32270 33951 ft 399 kts 271°
2026-04-20 20:01 29.00320 42.80800 34015 ft 413 kts 271°
2026-04-20 20:02 29.03659 42.28917 33891 ft 400 kts 271°
2026-04-20 20:02 29.06712 41.78622 33998 ft 400 kts 271°
2026-04-20 20:03 29.09675 41.27208 34006 ft 412 kts 270°
2026-04-20 20:03 29.12382 40.76043 33929 ft 393 kts 270°
2026-04-20 20:04 29.12234 40.25694 34073 ft 404 kts 266°
2026-04-20 20:04 29.11001 39.73823 33963 ft 405 kts 269°
2026-04-20 20:05 29.11143 39.23146 34019 ft 401 kts 268°
2026-04-20 20:05 29.11009 38.71399 34056 ft 416 kts 268°
2026-04-20 20:05 29.10854 38.45103 33939 ft 408 kts 268°
2026-04-20 20:06 29.10640 38.19497 33902 ft 397 kts 268°
2026-04-20 20:06 29.10050 37.68710 34047 ft 406 kts 268°
2026-04-20 20:07 29.09556 37.16549 33888 ft 407 kts 268°
2026-04-20 20:07 29.09026 36.65908 34016 ft 404 kts 268°
2026-04-20 20:08 29.07850 36.13817 34030 ft 415 kts 267°
2026-04-20 20:08 29.07069 35.87621 33924 ft 408 kts 267°
2026-04-20 20:08 29.06258 35.62130 33901 ft 396 kts 267°
2026-04-20 20:09 29.05142 35.29298 34024 ft 403 kts 267°
2026-04-20 20:09 29.04914 35.22863 33969 ft 407 kts 267°
2026-04-20 20:10 29.04684 35.16440 34011 ft 407 kts 267°
2026-04-20 20:10 29.04449 35.09985 33997 ft 406 kts 267°
2026-04-20 20:11 29.04212 35.03560 33977 ft 403 kts 267°
2026-04-20 20:11 29.03974 34.97172 33981 ft 402 kts 267°
2026-04-20 20:12 29.03735 34.90836 33961 ft 402 kts 267°
2026-04-20 20:12 29.03492 34.84458 33968 ft 402 kts 267°
2026-04-20 20:13 29.03332 34.74889 33963 ft 401 kts 268°
2026-04-20 20:13 29.03654 34.68523 33972 ft 403 kts 276°
2026-04-20 20:14 29.04665 34.62243 33979 ft 406 kts 281°
2026-04-20 20:14 29.06377 34.56068 33990 ft 409 kts 284°
2026-04-20 20:15 29.07295 34.52999 33629 ft 406 kts 284°
2026-04-20 20:15 29.08210 34.49953 33007 ft 404 kts 285°
2026-04-20 20:15 29.09114 34.46931 32437 ft 401 kts 285°
2026-04-20 20:15 29.10011 34.43918 31768 ft 400 kts 285°
2026-04-20 20:16 29.10893 34.40903 31152 ft 400 kts 285°
2026-04-20 20:16 29.11756 34.37935 30606 ft 397 kts 285°
2026-04-20 20:16 29.12625 34.34951 30081 ft 395 kts 285°
2026-04-20 20:16 29.13495 34.31971 29434 ft 394 kts 285°
2026-04-20 20:17 29.14357 34.29017 28859 ft 391 kts 285°
2026-04-20 20:17 29.15214 34.26079 28296 ft 388 kts 285°
2026-04-20 20:17 29.16064 34.23158 27724 ft 386 kts 285°
2026-04-20 20:17 29.16908 34.20255 27157 ft 384 kts 285°
2026-04-20 20:18 29.17748 34.17359 26600 ft 383 kts 286°
2026-04-20 20:18 29.18581 34.14492 25966 ft 373 kts 286°
2026-04-20 20:18 29.19379 34.11743 24928 ft 367 kts 286°
2026-04-20 20:18 29.20181 34.08970 23742 ft 367 kts 286°
2026-04-20 20:19 29.20986 34.06187 22358 ft 368 kts 287°
2026-04-20 20:19 29.21787 34.03414 21130 ft 366 kts 287°
2026-04-20 20:19 29.22582 34.00665 20024 ft 362 kts 287°
2026-04-20 20:19 29.23367 33.97947 18958 ft 358 kts 287°
2026-04-20 20:20 29.24145 33.95252 17840 ft 356 kts 287°
2026-04-20 20:20 29.24916 33.92576 16894 ft 352 kts 287°
2026-04-20 20:20 29.25674 33.89947 16433 ft 352 kts 287°
2026-04-20 20:20 29.26191 33.88153 16305 ft 351 kts 287°
2026-04-20 20:21 29.27202 33.84642 16062 ft 350 kts 287°
2026-04-20 20:21 29.27962 33.81998 16041 ft 348 kts 287°
2026-04-20 20:21 29.28720 33.79361 16034 ft 349 kts 287°
2026-04-20 20:21 29.29478 33.76719 16030 ft 349 kts 287°
2026-04-20 20:22 29.29980 33.74970 16027 ft 349 kts 287°
2026-04-20 20:22 29.30993 33.71436 16025 ft 349 kts 287°
2026-04-20 20:22 29.31749 33.68797 16032 ft 349 kts 287°
2026-04-20 20:22 29.32504 33.66157 16029 ft 349 kts 287°
2026-04-20 20:23 29.33249 33.63552 16024 ft 348 kts 287°
2026-04-20 20:23 29.34003 33.60912 16024 ft 348 kts 287°
2026-04-20 20:23 29.34755 33.58278 16028 ft 348 kts 287°
2026-04-20 20:23 29.35506 33.55641 16028 ft 348 kts 287°
2026-04-20 20:24 29.36258 33.53002 16031 ft 348 kts 287°
2026-04-20 20:24 29.36756 33.51254 16029 ft 349 kts 287°
2026-04-20 20:24 29.37508 33.48611 16030 ft 349 kts 287°
2026-04-20 20:24 29.38259 33.45969 16028 ft 349 kts 287°
2026-04-20 20:25 29.39263 33.42433 16033 ft 349 kts 287°
2026-04-20 20:25 29.39760 33.40683 16032 ft 349 kts 287°
2026-04-20 20:25 29.40485 33.38127 16031 ft 349 kts 287°
2026-04-20 20:25 29.41478 33.34621 16027 ft 349 kts 287°
2026-04-20 20:26 29.41974 33.32869 16030 ft 349 kts 287°
2026-04-20 20:26 29.42723 33.30219 16034 ft 349 kts 287°
2026-04-20 20:26 29.43228 33.28434 16030 ft 349 kts 287°
2026-04-20 20:28 29.43851 33.26228 16028 ft 349 kts 287°
2026-04-20 20:28 29.44598 33.23582 16000 ft 347 kts 287°
2026-04-20 20:28 29.45337 33.20964 15361 ft 343 kts 287°
2026-04-20 20:28 29.46066 33.18374 14468 ft 339 kts 287°
2026-04-20 20:29 29.46786 33.15817 13482 ft 335 kts 287°
2026-04-20 20:29 29.47499 33.13281 12393 ft 333 kts 288°
2026-04-20 20:29 29.48205 33.10768 11363 ft 329 kts 288°
2026-04-20 20:29 29.48905 33.08277 10391 ft 326 kts 288°
2026-04-20 20:30 29.51288 32.99774 7109 ft 311 kts 289°
2026-04-20 20:30 29.52805 32.94352 6358 ft 302 kts 289°
2026-04-20 20:30 29.53453 32.92035 6460 ft 316 kts 289°
2026-04-20 20:30 29.54127 32.89623 6522 ft 318 kts 289°
2026-04-20 20:31 29.54800 32.87213 6523 ft 314 kts 289°
2026-04-20 20:31 29.55461 32.84840 6517 ft 311 kts 288°
2026-04-20 20:31 29.57036 32.79179 6539 ft 308 kts 289°
2026-04-20 20:31 29.59629 32.69842 6528 ft 306 kts 289°
2026-04-20 20:32 29.61890 32.60314 6557 ft 312 kts 284°
2026-04-20 20:32 29.64027 32.50766 6567 ft 313 kts 284°
2026-04-20 20:32 29.66179 32.41205 6506 ft 305 kts 284°
2026-04-20 20:32 29.68296 32.31784 6513 ft 306 kts 284°
2026-04-20 20:33 29.69160 32.27928 6551 ft 314 kts 284°
2026-04-20 20:33 29.69707 32.25485 6552 ft 315 kts 284°
2026-04-20 20:33 29.70251 32.23054 6543 ft 313 kts 284°
2026-04-20 20:33 29.70793 32.20628 6534 ft 311 kts 284°
2026-04-20 20:34 29.71330 32.18223 6535 ft 312 kts 284°
2026-04-20 20:34 29.71863 32.15838 6557 ft 313 kts 284°
2026-04-20 20:34 29.72403 32.13411 6549 ft 314 kts 284°
2026-04-20 20:34 29.72945 32.10979 6549 ft 314 kts 284°
2026-04-20 20:35 29.73488 32.08536 6529 ft 316 kts 284°
2026-04-20 20:35 29.74029 32.06100 6447 ft 311 kts 284°
2026-04-20 20:35 29.74645 32.03735 6055 ft 306 kts 291°
2026-04-20 20:35 29.75282 32.01403 5466 ft 308 kts 278°
2026-04-20 20:36 29.75183 31.98941 5003 ft 310 kts 259°
2026-04-20 20:36 29.74685 31.96538 4759 ft 308 kts 256°
2026-04-20 20:36 29.74120 31.94191 4401 ft 310 kts 256°
2026-04-20 20:36 29.73485 31.91809 4095 ft 311 kts 255°
2026-04-20 20:37 29.72829 31.89454 4052 ft 308 kts 254°
2026-04-20 20:37 29.72168 31.87101 4052 ft 310 kts 254°
2026-04-20 20:37 29.71505 31.84747 4051 ft 311 kts 255°
2026-04-20 20:37 29.70821 31.82381 4054 ft 312 kts 254°
2026-04-20 20:38 29.70139 31.80011 4055 ft 312 kts 255°
2026-04-20 20:38 29.69464 31.77643 4047 ft 312 kts 255°
2026-04-20 20:38 29.68805 31.75271 4052 ft 311 kts 254°
2026-04-20 20:38 29.68151 31.72942 4050 ft 310 kts 254°
2026-04-20 20:39 29.67489 31.70594 4060 ft 308 kts 255°
2026-04-20 20:39 29.66822 31.68255 4050 ft 308 kts 254°
2026-04-20 20:39 29.66239 31.65914 4043 ft 301 kts 264°
2026-04-20 20:39 29.66153 31.63499 4057 ft 306 kts 274°
2026-04-20 20:40 29.66260 31.61039 4053 ft 309 kts 275°
2026-04-20 20:40 29.66370 31.58587 4051 ft 304 kts 275°
2026-04-20 20:40 29.66469 31.56155 3774 ft 306 kts 274°
2026-04-20 20:40 29.66564 31.53724 3626 ft 304 kts 275°
2026-04-20 20:41 29.66642 31.51336 3429 ft 303 kts 275°
2026-04-20 20:41 29.67014 31.49000 3049 ft 298 kts 295°
2026-04-20 20:41 29.68158 31.47017 2770 ft 298 kts 313°
2026-04-20 20:41 29.69563 31.45298 2748 ft 292 kts 315°
2026-04-20 20:42 29.70942 31.43616 2697 ft 286 kts 314°
2026-04-20 20:42 29.72286 31.41971 2597 ft 277 kts 314°
2026-04-20 20:42 29.73577 31.40387 2516 ft 265 kts 315°
2026-04-20 20:42 29.74809 31.38871 2493 ft 253 kts 315°
2026-04-20 20:43 29.75981 31.37469 2487 ft 246 kts 322°
2026-04-20 20:43 29.77496 31.36579 2508 ft 245 kts 340°
2026-04-20 20:43 29.79098 31.35911 2505 ft 245 kts 340°
2026-04-20 20:43 29.80681 31.35236 2497 ft 240 kts 339°
2026-04-20 20:44 29.82253 31.34564 2498 ft 243 kts 340°
2026-04-20 20:44 29.83855 31.33879 2502 ft 247 kts 340°
2026-04-20 20:44 29.85462 31.33189 2513 ft 250 kts 339°
2026-04-20 20:44 29.87082 31.32495 2495 ft 243 kts 340°
2026-04-20 20:45 29.88629 31.31907 2467 ft 224 kts 352°
2026-04-20 20:45 29.90109 31.31946 2480 ft 204 kts
2026-04-20 20:45 29.91480 31.32133 2469 ft 198 kts
2026-04-20 20:45 29.92849 31.32317 2503 ft 202 kts
2026-04-20 20:46 29.94227 31.32447 2484 ft 198 kts 356°
2026-04-20 20:46 29.95613 31.32317 2504 ft 200 kts 352°
2026-04-20 20:46 29.96983 31.32139 2488 ft 196 kts 352°
2026-04-20 20:46 29.98342 31.31960 2495 ft 197 kts 352°
2026-04-20 20:47 29.99705 31.31777 2497 ft 198 kts 352°
2026-04-20 20:47 30.01079 31.31588 2495 ft 199 kts 352°
2026-04-20 20:47 30.02440 31.31431 2481 ft 196 kts
2026-04-20 20:47 30.03734 31.31937 2505 ft 206 kts 34°
2026-04-20 20:48 30.04785 31.33050 2501 ft 207 kts 39°
2026-04-20 20:48 30.05784 31.34240 2476 ft 208 kts 49°
2026-04-20 20:48 30.06675 31.35554 2132 ft 204 kts 42°
2026-04-20 20:48 30.07612 31.36754 1455 ft 200 kts 42°
2026-04-20 20:49 30.08520 31.37950 838 ft 194 kts 47°
2026-04-20 20:49 30.09353 31.39044 564 ft 168 kts 42°
2026-04-20 20:49 30.10090 31.39991 382 ft 153 kts 44°
2026-04-20 20:49 30.10660 31.40730 379 ft 66 kts 47°
2026-04-20 20:50 30.10942 31.41095 379 ft 58 kts 49°
2026-04-20 20:50 30.11196 31.41428 379 ft 53 kts 50°
2026-04-20 20:50 30.11425 31.41605 379 ft 36 kts 18°
2026-04-20 20:50 30.11548 31.41615 379 ft 16 kts 347°
2026-04-20 20:51 30.11652 31.41584 379 ft 15 kts 341°
2026-04-20 20:51 30.11684 31.41488 379 ft 14 kts 257°